Weather History for KDVN - June, 2012

Change the Weather History Date:

Sunday, June 10, 2012

  Actual Average Record
Temperature  
Mean Temperature 77 °F 69 °F  
Max Temperature 87 °F 80 °F 95 °F (1968)
Min Temperature 67 °F 58 °F 44 °F (1977)
Degree Days  
Heating Degree Days 0 1  
Month to date heating degree days 11 15  
Since 1 June heating degree days 11 15  
Since 1 July heating degree days 5250 6502  
Cooling Degree Days 12 5  
Month to date cooling degree days 38 44  
Year to date cooling degree days 192 105  
Since 1 June cooling degree days 38 44  
Growing Degree Days 30 (Base 50)    
Moisture  
Dew Point 61 °F    
Average Humidity 54    
Maximum Humidity 64    
Minimum Humidity 44    
Precipitation  
Precipitation 0.00 in 0.16 in 1.54 in (1979)
Month to date precipitation 0.06 1.90  
Year to date precipitation 13.71 14.71  
Snow  
Snow 0.00 in - - ()
Month to date snowfall 0.0  
Since 1 June snowfall 0.0  
Since 1 July snowfall 21.2  
Snow Depth 0.00 in    
Sea Level Pressure  
Sea Level Pressure 29.84 in    
Wind  
Wind Speed 14 mph (South)    
Max Wind Speed 24 mph    
Max Gust Speed 31 mph    
Visibility 10 miles    
Events      
T = Trace of Precipitation, MM = Missing Value Source: NWS Daily Summary

Daily Weather History Graph

Daily Weather History Graph

Search for Another Location

Airport or City:

Trip Planner

Search our weather history database for the weather conditions in past years. The results will help you decide how hot, cold, wet, or windy it might be!

Date:

Astronomy

Jun. 10, 2012 Rise Set
Actual Time 5:27 AM CDT 8:36 PM CDT
Civil Twilight 4:53 AM CDT 9:10 PM CDT
Nautical Twilight 4:10 AM CDT 9:53 PM CDT
Astronomical Twilight 3:18 AM CDT 10:45 PM CDT
Moon 12:24 AM CDT (6/10) 12:21 PM CDT (6/10)
Length of Visible Light 16h 16m
Length of Day
15h 08m
Waning Gibbous, 58% of the Moon is Illuminated
Jun 10
Waning Gibbous
Jun 11
Last Quarter
Jun 19
New
Jun 26
First Quarter
Jul 3
Full

Hourly Weather History & Observations

Time (CDT) Temp. Heat Index Dew Point Humidity Pressure Visibility Wind Dir Wind Speed Gust Speed Precip Events Conditions
12:52 AM 75.0 °F - 57.0 °F 53% 29.83 in 10.0 mi South 10.4 mph - N/A   Partly Cloudy
1:52 AM 73.9 °F - 57.0 °F 55% 29.83 in 10.0 mi South 9.2 mph - N/A   Clear
2:52 AM 73.0 °F - 57.9 °F 59% 29.83 in 10.0 mi South 10.4 mph - N/A   Clear
3:52 AM 73.0 °F - 59.0 °F 61% 29.83 in 10.0 mi South 11.5 mph - N/A   Clear
4:52 AM 72.0 °F - 57.9 °F 61% 29.84 in 10.0 mi South 10.4 mph - N/A   Clear
5:52 AM 72.0 °F - 57.9 °F 61% 29.85 in 10.0 mi South 13.8 mph 20.7 mph N/A   Clear
6:52 AM 73.0 °F - 60.1 °F 64% 29.87 in 10.0 mi South 12.7 mph - N/A   Clear
7:52 AM 75.0 °F - 61.0 °F 62% 29.89 in 10.0 mi South 8.1 mph - N/A   Clear
8:52 AM 78.1 °F - 60.1 °F 54% 29.89 in 10.0 mi South 13.8 mph 21.9 mph N/A   Partly Cloudy
9:52 AM 81.0 °F 81.7 °F 61.0 °F 50% 29.89 in 10.0 mi South 13.8 mph - N/A   Clear
10:52 AM 82.9 °F 83.3 °F 61.0 °F 47% 29.88 in - SSE 18.4 mph - N/A   Unknown
11:52 AM 84.0 °F 85.4 °F 64.0 °F 51% 29.88 in 10.0 mi South 13.8 mph 21.9 mph N/A   Partly Cloudy
12:52 PM 82.9 °F 83.7 °F 62.1 °F 49% 29.86 in 10.0 mi SSE 18.4 mph 25.3 mph N/A   Scattered Clouds
1:52 PM 86.0 °F 86.8 °F 63.0 °F 46% 29.84 in 10.0 mi South 23.0 mph 31.1 mph N/A   Clear
2:52 PM 86.0 °F 86.8 °F 63.0 °F 46% 29.84 in 10.0 mi South 17.3 mph 28.8 mph N/A   Scattered Clouds
3:52 PM 87.1 °F 88.9 °F 64.9 °F 48% 29.83 in 10.0 mi SSE 17.3 mph 23.0 mph N/A   Scattered Clouds
4:52 PM 84.9 °F 85.4 °F 62.1 °F 46% 29.83 in 10.0 mi SSE 20.7 mph 27.6 mph N/A   Mostly Cloudy
5:52 PM 84.9 °F 84.8 °F 60.1 °F 43% 29.81 in 10.0 mi SSE 21.9 mph 29.9 mph N/A   Partly Cloudy
6:52 PM 84.0 °F 84.0 °F 60.1 °F 44% 29.81 in 10.0 mi SSE 18.4 mph 27.6 mph N/A   Clear
7:52 PM 82.0 °F 82.4 °F 60.1 °F 47% 29.80 in 10.0 mi South 16.1 mph 28.8 mph N/A   Clear
8:52 PM 80.1 °F 80.9 °F 60.1 °F 50% 29.81 in 10.0 mi South 12.7 mph - N/A   Clear
9:52 PM 79.0 °F - 61.0 °F 54% 29.81 in 10.0 mi SSE 9.2 mph - N/A   Clear
10:52 PM 78.1 °F - 62.1 °F 58% 29.83 in 10.0 mi South 10.4 mph - N/A   Clear
11:52 PM 75.9 °F - 63.0 °F 64% 29.83 in 10.0 mi South 6.9 mph - N/A   Clear